Weather History for KOFF - October, 2012

Change the Weather History Date:

Sunday, October 7, 2012

  Actual Average Record
Temperature  
Mean Temperature 38 °F -  
Max Temperature 57 °F 68 °F 86 °F (2007)
Min Temperature 19 °F 45 °F 19 °F (2012)
Degree Days  
Heating Degree Days 27    
Moisture  
Dew Point 24 °F    
Average Humidity 56    
Maximum Humidity 92    
Minimum Humidity 27    
Precipitation  
Precipitation 0.00 in - - ()
Sea Level Pressure  
Sea Level Pressure 30.20 in    
Wind  
Wind Speed 4 mph (SW)    
Max Wind Speed 14 mph    
Max Gust Speed 23 mph    
Visibility 10 miles    
Events      
Averages and records for this station are not official NWS values.
T = Trace of Precipitation, MM = Missing Value Source: NWS Daily Summary

Daily Weather History Graph

Daily Weather History Graph

Search for Another Location

Airport or City:

Trip Planner

Search our weather history database for the weather conditions in past years. The results will help you decide how hot, cold, wet, or windy it might be!

Date:

Astronomy

Oct. 07, 2012 Rise Set
Actual Time 7:27 AM CDT 6:54 PM CDT
Civil Twilight 6:59 AM CDT 7:22 PM CDT
Nautical Twilight 6:27 AM CDT 7:54 PM CDT
Astronomical Twilight 5:55 AM CDT 8:26 PM CDT
Moon No Moon Rise 2:07 PM CDT (10/7)
Length of Visible Light 12h 22m
Length of Day
11h 27m
Waning Gibbous, 56% of the Moon is Illuminated
Oct 7
Waning Gibbous
Oct 8
Last Quarter
Oct 15
New
Oct 21
First Quarter
Oct 29
Full

Hourly Weather History & Observations

Time (CDT) Temp. Windchill Dew Point Humidity Pressure Visibility Wind Dir Wind Speed Gust Speed Precip Events Conditions
12:55 AM 30.0 °F - 23.0 °F 75% 30.32 in 10.0 mi Calm Calm - N/A   Clear
1:55 AM 24.8 °F - 21.2 °F 86% 30.33 in 10.0 mi Calm Calm - N/A   Clear
2:55 AM 28.4 °F 24.6 °F 22.3 °F 78% 30.32 in 10.0 mi South 3.5 mph - N/A   Clear
3:55 AM 27.7 °F 23.8 °F 22.5 °F 81% 30.30 in 10.0 mi SSW 3.5 mph - N/A   Clear
4:55 AM 27.0 °F 23.0 °F 21.7 °F 81% 30.30 in 10.0 mi SSW 3.5 mph - N/A   Clear
5:55 AM 24.4 °F 20.1 °F 20.3 °F 84% 30.30 in 10.0 mi SSW 3.5 mph - N/A   Clear
6:55 AM 19.6 °F - 17.2 °F 91% 30.30 in 10.0 mi Calm Calm - N/A   Clear
7:55 AM 21.4 °F - 19.4 °F 92% 30.31 in 10.0 mi Calm Calm - N/A   Clear
8:55 AM 31.8 °F 27.3 °F 24.8 °F 75% 30.31 in 10.0 mi SW 4.6 mph - N/A   Clear
9:55 AM 36.9 °F - 25.0 °F 62% 30.30 in 10.0 mi Calm Calm - N/A   Clear
10:55 AM 45.1 °F 43.7 °F 26.4 °F 48% 30.28 in 10.0 mi SW 3.5 mph - N/A   Clear
11:55 AM 50.7 °F - 23.9 °F 35% 30.25 in 10.0 mi SSW 4.6 mph - N/A   Clear
12:55 PM 53.1 °F - 25.3 °F 34% 30.22 in 10.0 mi West 6.9 mph - N/A   Clear
1:55 PM 54.7 °F - 26.4 °F 34% 30.18 in 10.0 mi WSW 8.1 mph - N/A   Clear
2:55 PM 56.1 °F - 25.2 °F 30% 30.14 in 10.0 mi WSW 12.7 mph 23.0 mph N/A   Clear
3:55 PM 57.0 °F - 24.3 °F 28% 30.11 in 10.0 mi WSW 13.8 mph 23.0 mph N/A   Clear
4:55 PM 57.6 °F - 23.9 °F 27% 30.09 in 10.0 mi WSW 13.8 mph - N/A   Clear
5:55 PM 55.9 °F - 23.5 °F 29% 30.08 in 10.0 mi WSW 11.5 mph - N/A   Clear
6:55 PM 53.1 °F - 25.2 °F 34% 30.08 in 10.0 mi SW 10.4 mph - N/A   Clear
7:55 PM 48.9 °F - 25.7 °F 40% 30.09 in 10.0 mi SSW 6.9 mph - N/A   Clear
8:55 PM 45.0 °F 41.2 °F 25.7 °F 47% 30.08 in 10.0 mi South 6.9 mph - N/A   Clear
9:55 PM 44.8 °F 40.4 °F 27.0 °F 50% 30.07 in 10.0 mi South 8.1 mph - N/A   Clear
10:55 PM 43.3 °F 40.7 °F 27.3 °F 53% 30.06 in 10.0 mi South 4.6 mph - N/A   Clear
11:55 PM 44.1 °F 39.0 °F 29.1 °F 56% 30.04 in 10.0 mi SSW 9.2 mph - N/A   Clear